User: anonymous
Location: Unspecified
(0.0000°N, 0.0000°E)
Time: 21:17:40
(UTC+02:00)
Language:

Delta 2 Rocket - Orbit

View from above orbital plane
View from above orbital plane
View from above satellite
View from above satellite

Ground track
Ground track

The orbit data is extracted from the following two-line orbital elements,

1 20453U 90008B   14114.12884814  .00011838  00000-0  76672-3 0  9563
2 20453 035.6254 107.8371 0326326 018.5896 342.6426 14.72855342277809
Epoch (UTC): 24 April 2014 03:05:32
Eccentricity: 0.0326326
inclination: 35.6254°
perigee height: 422 km
apogee height: 881 km
right ascension of ascending node: 107.8371°
argument of perigee: 18.5896°
revolutions per day: 14.72855342
mean anomaly at epoch: 342.6426°
orbit number at epoch: 27780

The dashed part of the orbit path shows where the satellite is in the earth's shadow,  

DLR